Home > Weather > Emmendingen > Past weeks

Flag for Germany Weather for the Past 2 Weeks in Emmendingen, Baden-Württemberg, Germany

Now
46 °F

Partly sunny.


Feels Like: 40 °F
Forecast: 40 / 48 °F
Wind: 14 mph from South

Location: Lahr - CAN-AFB

Current Time: Feb 13, 2016 at 12:22:29 PM

Latest Report: Feb 13, 2016 at 11:50 AM


Visibility: N/A

Pressure: 29.27 "Hg

Humidity: 76%

Dew point: 39 °F

Location of EmmendingenLocation

Historic Weather in Emmendingen — Graph

°F

Emmendingen Temperature Yesterday

Maximum temperature yesterday: 46 °F (at 2:50 PM)
Minimum temperature yesterday: 34 °F (at 8:20 AM)
Average temperature yesterday: 41 °F

High & Low Weather Summary for the Past Weeks

 TemperatureHumidityPressure
High59 °F (Feb 1, 11:20 AM)100% (Jan 29, 10:20 AM)30.51 "Hg (Jan 29, 10:20 AM)
Low34 °F (Feb 12, 8:20 AM)44% (Feb 6, 5:50 PM)29.15 "Hg (Feb 9, 4:50 PM)
Average46 °F76%29.94 "Hg
* Reported Jan 29 10:20 AM — Feb 13 10:50 AM, Emmendingen, Weather by CustomWeather, © 2016

Note: Actual official high and low records may vary slightly from our data, if they occured in-between our weather recording intervals... More about our weather records

Advertising

Emmendingen Weather History for the Previous 24 Hours

 ConditionsComfort  
Time TempWeatherWind HumidityBarometerVisibility
10:50 AM
Sat, Feb 13
46 °FPartly sunny.10 mph82%29.30 "HgN/A
10:20 AM43 °FBroken clouds.6 mph93%29.30 "HgN/A
9:50 AM41 °FBroken clouds.2 mph100%29.33 "HgN/A
9:20 AM41 °FPartly sunny.1 mph100%29.33 "HgN/A
8:50 AM39 °FPartly sunny.1 mph100%29.36 "Hg5 mi
7:50 PM
Fri, Feb 12
39 °FLight rain. Partly cloudy.1 mph87%29.36 "Hg4 mi
7:20 PM39 °FPassing clouds.3 mph87%29.36 "Hg4 mi
6:50 PM39 °FLight rain. Passing clouds.3 mph81%29.36 "Hg4 mi
6:20 PM39 °FLight rain. Passing clouds.2 mph81%29.36 "Hg4 mi
5:50 PM41 °FSprinkles. Passing clouds.7 mph76%29.36 "HgN/A
5:20 PM41 °FSprinkles. Broken clouds.10 mph76%29.36 "HgN/A
4:50 PM45 °FPartly sunny.7 mph53%29.36 "HgN/A
4:20 PM45 °FScattered clouds.7 mph57%29.36 "HgN/A
3:50 PM45 °FPartly sunny.10 mph53%29.36 "HgN/A
3:20 PM45 °FPartly sunny.12 mph57%29.36 "HgN/A
2:50 PM46 °FPartly sunny.9 mph53%29.39 "HgN/A
2:20 PM45 °FPartly sunny.5 mph71%29.42 "HgN/A
1:50 PM43 °FPartly sunny.7 mph76%29.45 "HgN/A
1:20 PM43 °FScattered clouds.6 mph71%29.45 "HgN/A
12:50 PM43 °FPassing clouds.3 mph71%29.47 "HgN/A
12:20 PM43 °FPassing clouds.5 mph66%29.50 "HgN/A
Weather by CustomWeather, © 2016

See weather overviewHow to use our weather pages